Regional Weather Roundup
Issued by NWS Bismarck, ND

Home | Current Version | Previous Version | Text Only | Print | Product List | Glossary On
Versions: 1 2 3 4 5 6 7 8 9 10 11 12 13 14 15 16 17 18 19 20 21 22 23 24 25 26 27 28 29 30 31 32 33 34 35 36 37 38 39 40 41 42 43 44 45 46 47 48 49 50
000
ASUS43 KBIS 031510
RWRBIS

NWR BROADCAST TEXT
NATIONAL WEATHER SERVICE BISMARCK ND
1000 AM CDT THU SEP 03 2015

NOTE: "FAIR" INDICATES FEW OR NO CLOUDS BELOW 12,000 FEET WITH NO
SIGNIFICANT WEATHER AND/OR OBSTRUCTIONS TO VISIBILITY.


CITY           SKY/WX    TMP DP  RH WIND       PRES   REMARKS
WILLISTON      SUNNY     70  54  56 N14       29.69S
MINOT          CLOUDY    73  70  90 E6        29.67F FOG
MINOT AFB      NOT AVBL
BISMARCK       MOSUNNY   76  67  73 SE13      29.70R
DICKINSON      MOSUNNY   80  48  32 W8        29.68S
GARRISON         N/A     75  68  78 S9        29.68R
HETTINGER ARPT MOSUNNY   77  48  35 W3        29.73S
JAMESTOWN      CLOUDY    75  70  84 S14G25    29.74F
CROSBY         FAIR      72  50  46 N15       29.71S
HARVEY         FAIR      75  72  88 SE9       29.69F
HAZEN          FAIR      73  66  78 SE7       29.68S
LINTON         FAIR      77  70  78 SE8       29.72S
OAKES            N/A     77  72  83 SE14      29.77S
RUGBY          CLOUDY    75  72  88 SE14G21   29.70R
STANLEY        CLOUDY    72  72 100 SE10      29.68S
$$

CITY           SKY/WX    TMP DP  RH WIND       PRES   REMARKS
GRAND FORKS    CLOUDY    74  69  85 SE18G24   29.77F
GRAND FORKS AF CLOUDY    72  70  94 S20G26    29.77S
DEVILS LAKE    CLOUDY    72  64  78 SE21G26   29.72S
FARGO          CLOUDY    77  70  79 SE17G25   29.79S
CAVALIER       FOG       72  70  94 S12G20    29.75F VSB 1
GRAFTON        CLOUDY    72  72 100 SE18G25   29.77F FOG
GWINNER          N/A     75  75 100 SE15      29.79S
LANGDON        CLOUDY    70  70 100 SE16      29.76F FOG
ROLLA          CLOUDY    72  72 100 S12G21    29.75S
WALHALLA       FAIR      72  72 100 MISG      29.75F FOG
$$

CITY           SKY/WX    TMP DP  RH WIND       PRES   REMARKS
ABERDEEN       SUNNY     78  70  76 S15       29.76S
MOBRIDGE       SUNNY     79  64  60 SE12      29.70S
BUFFALO          N/A     78  44  29 W13       29.70R
RAPID CITY     MOSUNNY   77  55  46 VRB3      29.80S
GLASGOW        SUNNY     62  40  44 NW15      29.86R
SIDNEY         MOSUNNY   72  48  43 N9          N/A
WOLF POINT     MOSUNNY   72  40  31 NW12      29.79R
GLENDIVE       MOSUNNY   72  45  37 N7        29.74R
MILES CITY     PTSUNNY   69  40  34 NW18      29.82R
BAKER          SUNNY     70  45  40 W7        29.75R
$$

CITY           SKY/WX    TMP DP  RH WIND       PRES   REMARKS
BILLINGS       CLOUDY    63  36  36 E9        29.88R
GREAT FALLS    CLOUDY    56  37  49 E15       29.93S
REGINA         PTSUNNY   57  50  77 N14G20    29.78S
ESTEVAN        PTSUNNY   72  63  73 N13       29.71R
$$




USA.gov is the U.S. government's official web portal to all federal, state and local government web resources and services.